| time (UTC) | temp F | wind direction | speed MPH | gust MPH | rain 1hr in | rain 24hr in | rain mn in | humidity % | barometer mb |
| 20260504000022 | 80 | 229 | 2.0 | 4.0 | 0.00 | 0.00 | 0.00 | 22 | |
| 20260503234528 | 80 | 281 | 1.0 | 6.0 | 0.00 | 0.00 | 0.00 | 22 | |
| 20260503233030 | 81 | 241 | 3.0 | 5.0 | 0.00 | 0.00 | 0.00 | 20 | |
| 20260503231529 | 81 | 173 | 3.0 | 5.0 | 0.00 | 0.00 | 0.00 | 20 | |
| 20260503230028 | 82 | 215 | 2.0 | 6.0 | 0.00 | 0.00 | 0.00 | 20 | |
| 20260503224536 | 82 | 173 | 2.0 | 7.0 | 0.00 | 0.00 | 0.00 | 20 | |
| 20260503223037 | 82 | 198 | 2.0 | 7.0 | 0.00 | 0.00 | 0.00 | 20 | |
| 20260503221540 | 83 | 221 | 4.0 | 11.0 | 0.00 | 0.00 | 0.00 | 18 | |
| 20260503220040 | 83 | 169 | 1.0 | 7.0 | 0.00 | 0.00 | 0.00 | 19 | |
| 20260503214547 | 84 | 280 | 1.0 | 7.0 | 0.00 | 0.00 | 0.00 | 19 | |
| 20260503213053 | 84 | 223 | 1.0 | 8.0 | 0.00 | 0.00 | 0.00 | 19 | |
| 20260503211602 | 84 | 264 | 4.0 | 7.0 | 0.00 | 0.00 | 0.00 | 16 | |
| 20260503210058 | 84 | 270 | 2.0 | 6.0 | 0.00 | 0.00 | 0.00 | 19 | 1039.1 |
| 20260503204601 | 84 | 245 | 2.0 | 6.0 | 0.00 | 0.00 | 0.00 | 19 | 1039.1 |
| 20260503203106 | 84 | 260 | 2.0 | 6.0 | 0.00 | 0.00 | 0.00 | 19 | 1039.1 |
| 20260503201502 | 84 | 318 | 2.0 | 7.0 | 0.00 | 0.00 | 0.00 | 18 | 1039.1 |
| 20260503200001 | 84 | 239 | 2.0 | 9.0 | 0.00 | 0.00 | 0.00 | 20 | 1039.1 |
| 20260503194502 | 84 | 261 | 2.0 | 9.0 | 0.00 | 0.00 | 0.00 | 19 | 1039.1 |
| 20260503193005 | 83 | 302 | 1.0 | 5.0 | 0.00 | 0.00 | 0.00 | 19 | 1039.1 |
| 20260503191505 | 83 | 297 | 4.0 | 9.0 | 0.00 | 0.00 | 0.00 | 20 | 1039.1 |
| 20260503190020 | 83 | 275 | 3.0 | 8.0 | 0.00 | 0.00 | 0.00 | 20 | 1039.1 |
| 20260503184516 | 82 | 245 | 2.0 | 6.0 | 0.00 | 0.00 | 0.00 | 22 | 1039.1 |
| 20260503183013 | 81 | 268 | 2.0 | 7.0 | 0.00 | 0.00 | 0.00 | 25 | 1039.1 |
| 20260503181514 | 81 | 270 | 2.0 | 7.0 | 0.00 | 0.00 | 0.00 | 26 | 1039.1 |
| 20260503180014 | 80 | 237 | 4.0 | 8.0 | 0.00 | 0.00 | 0.00 | 26 | 1039.1 |
| 20260503174514 | 79 | 220 | 2.0 | 8.0 | 0.00 | 0.00 | 0.00 | 29 | 1039.1 |
| 20260503173019 | 78 | 280 | 2.0 | 7.0 | 0.00 | 0.00 | 0.00 | 31 | 1039.1 |
| 20260503171512 | 76 | 266 | 2.0 | 10.0 | 0.00 | 0.00 | 0.00 | 32 | 1039.1 |
| 20260503081536 | 54 | 320 | 0.0 | 0.0 | 0.00 | 0.00 | 0.00 | 61 | 1039.1 |
| 20260503071532 | 55 | 316 | 0.0 | 1.0 | 0.00 | 0.00 | 0.00 | 60 | 1039.1 |
| 20260503054528 | 58 | 315 | 0.0 | 0.0 | 0.00 | 0.00 | 0.00 | 55 | 1039.1 |
| 20260503053015 | 58 | 315 | 0.0 | 0.0 | 0.00 | 0.00 | 0.00 | 54 | 1039.1 |
| 20260503051518 | 59 | 315 | 0.0 | 0.0 | 0.00 | 0.00 | 0.00 | 54 | 1039.1 |
| 20260503050020 | 60 | 315 | 0.0 | 0.0 | 0.00 | 0.00 | 0.00 | 53 | 1039.1 |
| 20260503044521 | 61 | 315 | 0.0 | 0.0 | 0.00 | 0.00 | 0.00 | 53 | 1039.1 |
| 20260503043022 | 61 | 315 | 0.0 | 0.0 | 0.00 | 0.00 | 0.00 | 52 | 1039.1 |
| 20260503041522 | 61 | 315 | 0.0 | 0.0 | 0.00 | 0.00 | 0.00 | 51 | 1039.1 |
| 20260503040025 | 62 | 315 | 0.0 | 0.0 | 0.00 | 0.00 | 0.00 | 51 | 1039.1 |
| 20260503034529 | 63 | 315 | 0.0 | 0.0 | 0.00 | 0.00 | 0.00 | 51 | 1039.1 |
| 20260503033032 | 63 | 315 | 0.0 | 0.0 | 0.00 | 0.00 | 0.00 | 51 | 1039.1 |
| 20260503031537 | 64 | 315 | 0.0 | 0.0 | 0.00 | 0.00 | 0.00 | 50 | 1039.1 |
| 20260503030036 | 64 | 315 | 0.0 | 0.0 | 0.00 | 0.00 | 0.00 | 48 | 1039.1 |
| 20260503024538 | 65 | 315 | 0.0 | 0.0 | 0.00 | 0.00 | 0.00 | 45 | 1039.1 |
| 20260503023038 | 66 | 315 | 0.0 | 0.0 | 0.00 | 0.00 | 0.00 | 43 | 1039.1 |
| 20260503021540 | 67 | 315 | 0.0 | 0.0 | 0.00 | 0.00 | 0.00 | 42 | 1039.1 |
| 20260503020039 | 69 | 315 | 0.0 | 0.0 | 0.00 | 0.00 | 0.00 | 39 | 1039.1 |
| 20260503014602 | 70 | 315 | 0.0 | 0.0 | 0.00 | 0.00 | 0.00 | 37 | 1039.1 |
| 20260503013048 | 72 | 315 | 0.0 | 0.0 | 0.00 | 0.00 | 0.00 | 34 | 1039.1 |
| 20260503011550 | 73 | 315 | 0.0 | 0.0 | 0.00 | 0.00 | 0.00 | 32 | 1039.1 |
| 20260503010051 | 74 | 315 | 0.0 | 0.0 | 0.00 | 0.00 | 0.00 | 30 | 1039.1 |
| 20260503004546 | 75 | 315 | 0.0 | 0.0 | 0.00 | 0.00 | 0.00 | 30 | 1039.1 |
| 20260503003100 | 75 | 315 | 1.0 | 4.0 | 0.00 | 0.00 | 0.00 | 26 | 1039.1 |
| 20260503001612 | 76 | 307 | 1.0 | 4.0 | 0.00 | 0.00 | 0.00 | 25 | 1039.1 |
| 20260503000100 | 77 | 272 | 1.0 | 4.0 | 0.00 | 0.00 | 0.00 | 24 | 1039.1 |